Location: Plainartige
(45.6866°N, 1.7993°E)
Time: 04:30:43
(UTC+00:00)

Vanguard 1 - Pass Details

Date: 28 May 2022
Orbit: 649 x 3833 km, 34.2° (Epoch: 06 July)

Event Time Altitude Azimuth Distance (km) Brightness Sun altitude
Exits shadow 01:11:09 23° 223° (SW) 3,971 12.6 -20.4°
Maximum altitude 01:21:05 52° 160° (SSE) 3,528 12.5 -19.8°
Drops below altitude 10° 01:41:59 10° 93° (E) 6,904 14.7 -18.2°
Sets 01:47:46 0° 90° (E) 7,976 15.1 -17.7°
